Flag for Germany Weather past 2 weeks in Krefeld, North Rhine-Westphalia, Germany

Now
49 °F

Clear.


Feels Like: 48 °F
Forecast: 42 / 65 °F
Wind: 3 mph from Northeast

Location: Duesseldorf

Current Time: Apr 20, 2015 at 3:02:00 AM

Latest Report: Apr 20, 2015 at 2:00 AM


Visibility: 19 mi

Pressure: 30.25 "Hg

Humidity: 63%

Dew point: 37 °F

Location of KrefeldLocation

Historic Weather in Krefeld — Graph

°F

Krefeld temperature yesterday

Maximum temperature yesterday: 61 °F (at 6:00 PM)
Minimum temperature yesterday: 34 °F (at 6:00 AM)
Average temperature yesterday: 48 °F

Past Weeks' High & Low Weather Summary

 TemperatureHumidityPressure
High74 °F (Apr 15, 4:00 PM)99% (Apr 7, 6:00 AM)30.65 "Hg (Apr 7, 6:00 AM)
Low29 °F (Apr 7, 7:00 AM)31% (Apr 10, 6:00 PM)29.93 "Hg (Apr 15, 8:00 PM)
Average50 °F66%30.27 "Hg
* Reported Apr 5 2:00 AM — Apr 20 2:00 AM, Krefeld, Weather by CustomWeather, © 2015

Note: Actual official high and low records may vary slightly from our data, if they occured in-between our weather recording intervals... More about our weather records

Advertising

Krefeld weather history for previous 24 hours

 ConditionsComfort  
Time TempWeatherWind HumidityBarometerVisibility
2:00 AM
Mon, Apr 20
49 °FClear.3 mph63%30.25 "Hg19 mi
1:00 AM49 °FClear.5 mph64%30.24 "Hg19 mi
12:00 AM52 °FClear.5 mph53%30.24 "Hg22 mi
10:00 PM
Sun, Apr 19
52 °FPassing clouds.3 mph56%30.21 "Hg25 mi
9:00 PM56 °FPassing clouds.3 mph46%30.19 "Hg25 mi
8:00 PM59 °FPassing clouds.5 mph39%30.18 "Hg22 mi
7:00 PM60 °FPassing clouds.5 mph38%30.16 "Hg19 mi
6:00 PM61 °FScattered clouds.3 mph39%30.15 "Hg19 mi
4:00 PM60 °FOvercast.5 mph43%30.15 "Hg19 mi
3:00 PM59 °FOvercast.3 mph41%30.17 "Hg19 mi
2:00 PM57 °FOvercast.2 mph42%30.18 "Hg19 mi
1:00 PM55 °FOvercast.1 mph44%30.18 "Hg19 mi
12:00 PM51 °FOvercast.2 mph60%30.19 "Hg14 mi
10:00 AM45 °FOvercast.2 mph77%30.20 "Hg11 mi
9:00 AM42 °FOvercast.2 mph83%30.21 "Hg11 mi
8:00 AM40 °FOvercast.1 mph90%30.20 "Hg11 mi
7:00 AM36 °FPartly sunny.2 mph97%30.21 "Hg11 mi
6:00 AM34 °FFog.1 mph95%30.20 "Hg31 mi
4:00 AM37 °FClear.2 mph89%30.24 "Hg31 mi
3:00 AM39 °FClear.2 mph83%30.25 "Hg31 mi
Weather by CustomWeather, © 2015

See weather overviewHow to use our weather pages